Location: *
(58.4167°N, 22.5000°E)
Time: 07:06:18
(UTC+00:00)

NOSS 2-1 (D) - Pass Details

Date: 22 September 2019
Orbit: 462 x 1741 km, 63.3° (Epoch: 15 October)

Event Time Altitude Azimuth Distance (km) Brightness Sun altitude
Rises 20:41:10 0° 302° (WNW) 2,869 7.9 -28.1°
Reaches altitude 10° 20:43:09 10° 301° (WNW) 2,083 7.0 -28.2°
Enters shadow 20:47:12 68° 281° (W) 850 4.2 -28.4°
